Tracking 30918 objects as of 2-Jul-2025
HD Live streaming from Space Station
objects crossing your sky now

STARLINK-11506

Track STARLINK-11506 now!
10-day predictions
STARLINK-11506 is classified as:


NORAD ID: 62466
Int'l Code: 2024-254E
Perigee: 361.7 km
Apogee: 365.3 km
Inclination: 43.0 °
Period: 91.7 minutes
Semi major axis: 6734 km
RCS: Unknown
Launch date: December 31, 2024
Source: United States (US)
Launch site: AIR FORCE EASTERN TEST RANGE (AFETR)
Your satellite tracking list
IRIDIUM 114
Track 1 satellite(s)




NASA's NSSDC Master Catalog

Two Line Element Set (TLE):
1 62466U 24254E   25182.65334264  .00173571  00000-0  13251-2 0  9990
2 62466  43.0013 295.7952 0002651 260.7662  99.2905 15.70892566 29766
Source of the keplerian elements: AFSPC